Radiation Dose at Monitoring Post of Fukushima Daini Nuclear Power Station
Date,Time,MP-1(microSv/h),MP-2(microSv/h),MP-3(microSv/h),MP-4(microSv/h),MP-5(microSv/h),MP-6(microSv/h),MP-7(microSv/h),Wind Direction,Wind Velocity(m/s),Rain
2020/06/16,00:00,0.175,0.160,0.258,0.246,0.249,0.140,0.087,south-southwest,4.9,No
2020/06/16,00:10,0.176,0.160,0.259,0.249,0.249,0.140,0.086,south-southwest,3.3,No
2020/06/16,00:20,0.175,0.160,0.257,0.245,0.246,0.139,0.085,south-southwest,5.4,No
2020/06/16,00:30,0.175,0.160,0.259,0.249,0.249,0.138,0.085,south-southwest,4.9,No
2020/06/16,00:40,0.175,0.160,0.255,0.245,0.246,0.139,0.084,south-southwest,4.7,No
2020/06/16,00:50,0.172,0.159,0.256,0.247,0.245,0.138,0.084,southwest,3.9,No
2020/06/16,01:00,0.174,0.160,0.258,0.248,0.248,0.139,0.084,southwest,3.1,No
2020/06/16,01:10,0.174,0.158,0.257,0.245,0.245,0.138,0.085,west-southwest,2.9,No
2020/06/16,01:20,0.173,0.158,0.258,0.247,0.246,0.138,0.084,west,5.2,No
2020/06/16,01:30,0.176,0.158,0.255,0.245,0.248,0.138,0.084,west,4.1,No
2020/06/16,01:40,0.174,0.158,0.257,0.245,0.243,0.138,0.085,west,7.7,No
2020/06/16,01:50,0.173,0.159,0.255,0.246,0.246,0.138,0.083,west,7.1,No
2020/06/16,02:00,0.175,0.158,0.255,0.244,0.245,0.138,0.084,west-northwest,7.7,No
2020/06/16,02:10,0.172,0.159,0.257,0.246,0.244,0.136,0.084,west-northwest,7.8,No
2020/06/16,02:20,0.175,0.158,0.255,0.244,0.246,0.138,0.084,northwest,5.5,No
2020/06/16,02:30,0.173,0.159,0.256,0.246,0.244,0.137,0.084,northwest,2.5,No
2020/06/16,02:40,0.174,0.159,0.255,0.245,0.247,0.138,0.084,north-northwest,3.1,No
2020/06/16,02:50,0.173,0.158,0.257,0.245,0.245,0.138,0.084,northwest,2.4,No
2020/06/16,03:00,0.173,0.158,0.256,0.246,0.246,0.136,0.083,west-northwest,2.3,No
2020/06/16,03:10,0.174,0.158,0.256,0.245,0.245,0.138,0.084,north,1.5,No
2020/06/16,03:20,0.172,0.159,0.256,0.247,0.242,0.137,0.084,north-northwest,1.5,No
2020/06/16,03:30,0.174,0.158,0.256,0.245,0.246,0.137,0.083,north-northwest,2.4,No
2020/06/16,03:40,0.173,0.158,0.257,0.247,0.243,0.137,0.083,northwest,2.9,No
2020/06/16,03:50,0.174,0.157,0.255,0.244,0.245,0.137,0.083,northwest,2.1,No
2020/06/16,04:00,0.173,0.159,0.257,0.247,0.246,0.138,0.083,north-northwest,1.4,No
2020/06/16,04:10,0.173,0.158,0.255,0.245,0.243,0.137,0.083,northwest,2.0,No
2020/06/16,04:20,0.175,0.159,0.258,0.244,0.246,0.137,0.084,northwest,3.4,No
2020/06/16,04:30,0.172,0.159,0.256,0.247,0.244,0.138,0.083,north-northwest,3.6,No
2020/06/16,04:40,0.174,0.159,0.256,0.243,0.245,0.136,0.084,northwest,3.9,No
2020/06/16,04:50,0.174,0.159,0.257,0.247,0.246,0.137,0.084,north-northwest,5.1,No
2020/06/16,05:00,0.174,0.159,0.255,0.244,0.244,0.136,0.084,northwest,5.6,No
2020/06/16,05:10,0.174,0.158,0.257,0.245,0.247,0.138,0.083,northwest,5.0,No
2020/06/16,05:20,0.172,0.158,0.255,0.244,0.245,0.138,0.084,northwest,4.7,No
2020/06/16,05:30,0.174,0.159,0.257,0.245,0.244,0.136,0.084,north-northwest,4.8,No
2020/06/16,05:40,0.173,0.159,0.256,0.247,0.248,0.138,0.083,northwest,4.1,No
2020/06/16,05:50,0.172,0.158,0.256,0.244,0.245,0.136,0.084,north-northwest,3.0,No
2020/06/16,06:00,0.176,0.158,0.258,0.246,0.244,0.138,0.084,north,2.5,No
2020/06/16,06:10,0.174,0.157,0.255,0.245,0.247,0.137,0.083,north-northwest,2.8,No
2020/06/16,06:20,0.173,0.159,0.257,0.246,0.244,0.137,0.084,north-northwest,3.6,No
2020/06/16,06:30,0.174,0.159,0.256,0.245,0.245,0.137,0.084,north-northwest,3.8,No
2020/06/16,06:40,0.174,0.158,0.255,0.243,0.246,0.136,0.083,north-northwest,4.4,No
2020/06/16,06:50,0.173,0.157,0.257,0.246,0.243,0.137,0.084,north,3.8,No
2020/06/16,07:00,0.175,0.158,0.257,0.246,0.243,0.138,0.083,north,3.1,No
2020/06/16,07:10,0.174,0.159,0.254,0.245,0.246,0.136,0.082,north,3.0,No
2020/06/16,07:20,0.173,0.159,0.252,0.243,0.246,0.137,0.082,north,2.5,No
2020/06/16,07:30,0.175,0.158,0.253,0.245,0.243,0.138,0.083,north-northeast,3.4,No
2020/06/16,07:40,0.175,0.158,0.254,0.246,0.244,0.137,0.083,north-northeast,3.0,No
2020/06/16,07:50,0.174,0.157,0.254,0.244,0.245,0.137,0.082,north,2.5,No
2020/06/16,08:00,0.173,0.158,0.254,0.244,0.246,0.137,0.083,west-northwest,1.0,No
2020/06/16,08:10,0.173,0.157,0.255,0.245,0.245,0.137,0.083,north-northeast,1.5,No
2020/06/16,08:20,0.175,0.158,0.254,0.244,0.245,0.137,0.083,north,1.4,No
2020/06/16,08:30,0.174,0.157,0.255,0.243,0.245,0.137,0.084,north-northeast,0.8,No
2020/06/16,08:40,0.173,0.159,0.256,0.245,0.245,0.139,0.084,north-northeast,0.6,No
2020/06/16,08:50,0.173,0.159,0.257,0.244,0.243,0.138,0.084,northeast,2.1,No
2020/06/16,09:00,0.173,0.159,0.257,0.245,0.245,0.136,0.084,east,2.6,No
2020/06/16,09:10,0.172,0.157,0.257,0.245,0.243,0.136,0.084,southeast,2.1,No
2020/06/16,09:20,0.176,0.158,0.257,0.245,0.244,0.138,0.084,east-northeast,1.4,No
2020/06/16,09:30,0.177,0.158,0.257,0.245,0.244,0.137,0.083,east,2.2,No
2020/06/16,09:40,0.174,0.159,0.258,0.246,0.245,0.137,0.083,east,2.3,No
2020/06/16,09:50,0.175,0.158,0.256,0.247,0.244,0.137,0.083,east,1.8,No
2020/06/16,10:00,0.174,0.159,0.258,0.246,0.246,0.138,0.083,east-northeast,1.3,No
2020/06/16,10:10,0.172,0.158,0.259,0.246,0.246,0.138,0.084,east-northeast,0.7,No
2020/06/16,10:20,0.173,0.158,0.259,0.245,0.245,0.138,0.084,east,2.1,No
2020/06/16,10:30,0.173,0.160,0.259,0.246,0.246,0.139,0.083,east,2.4,No
2020/06/16,10:40,0.174,0.159,0.258,0.247,0.247,0.138,0.083,east-southeast,3.8,No
2020/06/16,10:50,0.173,0.158,0.258,0.247,0.247,0.138,0.084,east-southeast,3.9,No
2020/06/16,11:00,0.175,0.160,0.260,0.249,0.247,0.138,0.084,east-southeast,2.9,No
2020/06/16,11:10,0.175,0.159,0.258,0.248,0.246,0.139,0.083,east-southeast,4.5,No
2020/06/16,11:20,0.175,0.161,0.258,0.248,0.246,0.138,0.084,east-southeast,2.5,No
2020/06/16,11:30,0.175,0.160,0.260,0.246,0.246,0.139,0.084,southeast,2.0,No
2020/06/16,11:40,0.174,0.161,0.259,0.247,0.248,0.138,0.084,east-southeast,2.5,No
2020/06/16,11:50,0.175,0.160,0.260,0.248,0.247,0.138,0.084,southeast,2.8,No
2020/06/16,12:00,0.175,0.159,0.260,0.247,0.247,0.139,0.084,south-southeast,1.9,No
2020/06/16,12:10,0.175,0.160,0.261,0.249,0.247,0.139,0.084,southeast,5.2,No
2020/06/16,12:20,0.175,0.160,0.261,0.248,0.247,0.139,0.084,south-southeast,4.7,No
2020/06/16,12:30,0.176,0.160,0.259,0.249,0.246,0.139,0.084,southeast,4.1,No
2020/06/16,12:40,0.174,0.159,0.260,0.249,0.247,0.139,0.085,southeast,4.4,No
2020/06/16,12:50,0.175,0.159,0.261,0.249,0.247,0.139,0.084,southeast,4.5,No
2020/06/16,13:00,0.176,0.160,0.262,0.250,0.247,0.139,0.084,southeast,3.4,No
2020/06/16,13:10,0.174,0.160,0.260,0.248,0.246,0.138,0.084,south-southeast,4.5,No
2020/06/16,13:20,0.176,0.159,0.258,0.248,0.247,0.140,0.085,south-southeast,4.0,No
2020/06/16,13:30,0.174,0.160,0.260,0.248,0.246,0.139,0.085,south-southeast,4.6,No
2020/06/16,13:40,0.174,0.159,0.260,0.248,0.246,0.139,0.084,south-southeast,4.5,No
2020/06/16,13:50,0.174,0.160,0.259,0.248,0.246,0.139,0.084,south-southeast,5.8,Yes
2020/06/16,14:00,0.175,0.163,0.260,0.252,0.247,0.140,0.085,south-southeast,6.2,No
2020/06/16,14:10,0.178,0.161,0.263,0.253,0.249,0.140,0.085,south,6.0,No
2020/06/16,14:20,0.177,0.161,0.262,0.250,0.250,0.139,0.084,south-southeast,6.2,No
2020/06/16,14:30,0.176,0.160,0.260,0.250,0.248,0.139,0.084,south,6.9,No
2020/06/16,14:40,0.175,0.160,0.261,0.249,0.248,0.138,0.083,south-southeast,7.3,No
2020/06/16,14:50,0.174,0.161,0.260,0.248,0.246,0.139,0.084,south,7.4,No
2020/06/16,15:00,0.175,0.162,0.258,0.253,0.246,0.139,0.085,south,6.2,No
2020/06/16,15:10,0.177,0.161,0.259,0.252,0.244,0.140,0.084,south,6.0,No
2020/06/16,15:20,0.178,0.161,0.260,0.251,0.246,0.139,0.084,south,6.9,No
2020/06/16,15:30,0.175,0.160,0.261,0.249,0.245,0.139,0.084,south,8.1,No
2020/06/16,15:40,0.175,0.160,0.264,0.249,0.250,0.138,0.084,south,7.1,No
2020/06/16,15:50,0.174,0.161,0.263,0.251,0.251,0.139,0.084,south,5.9,No
2020/06/16,16:00,0.177,0.161,0.261,0.252,0.249,0.139,0.085,south,3.9,No
2020/06/16,16:10,0.177,0.162,0.263,0.249,0.246,0.139,0.083,south,5.4,Yes
2020/06/16,16:20,0.175,0.162,0.262,0.250,0.251,0.140,0.085,south,6.9,No
2020/06/16,16:30,0.177,0.161,0.261,0.253,0.251,0.140,0.086,south-southwest,5.3,Yes
2020/06/16,16:40,0.178,0.161,0.263,0.250,0.246,0.140,0.086,south,4.9,No
2020/06/16,16:50,0.178,0.162,0.264,0.250,0.247,0.140,0.086,south,7.3,No
2020/06/16,17:00,0.175,0.162,0.261,0.252,0.250,0.141,0.087,south,5.7,No
2020/06/16,17:10,0.178,0.161,0.261,0.252,0.250,0.141,0.086,south,5.8,Yes
2020/06/16,17:20,0.177,0.162,0.264,0.251,0.247,0.140,0.088,south,6.2,No
2020/06/16,17:30,0.174,0.162,0.263,0.249,0.250,0.141,0.088,south,6.2,No
2020/06/16,17:40,0.176,0.162,0.262,0.252,0.251,0.141,0.087,south,4.6,No
2020/06/16,17:50,0.178,0.160,0.262,0.251,0.248,0.139,0.086,south,4.6,No
2020/06/16,18:00,0.176,0.162,0.264,0.250,0.246,0.141,0.086,south-southwest,4.5,No
2020/06/16,18:10,0.175,0.162,0.264,0.253,0.246,0.141,0.087,south-southwest,4.5,No
2020/06/16,18:20,0.175,0.160,0.262,0.251,0.251,0.139,0.085,south-southwest,4.0,No
2020/06/16,18:30,0.177,0.162,0.262,0.250,0.250,0.141,0.086,south-southwest,4.8,No
2020/06/16,18:40,0.176,0.162,0.264,0.253,0.247,0.140,0.084,south-southwest,4.3,No
2020/06/16,18:50,0.174,0.160,0.261,0.251,0.249,0.138,0.086,southwest,4.5,No
2020/06/16,19:00,0.177,0.162,0.263,0.250,0.248,0.140,0.085,west-southwest,3.3,No
2020/06/16,19:10,0.176,0.160,0.264,0.253,0.248,0.139,0.084,west-southwest,3.1,No
2020/06/16,19:20,0.175,0.161,0.259,0.251,0.249,0.139,0.085,west,4.0,No
2020/06/16,19:30,0.177,0.162,0.265,0.248,0.251,0.140,0.084,west,7.9,No
2020/06/16,19:40,0.174,0.161,0.263,0.253,0.248,0.139,0.084,west,6.3,No
2020/06/16,19:50,0.175,0.161,0.262,0.251,0.249,0.138,0.085,west,6.2,No
2020/06/16,20:00,0.176,0.162,0.263,0.250,0.249,0.141,0.084,west,8.2,No
2020/06/16,20:10,0.176,0.160,0.262,0.251,0.247,0.140,0.085,west,7.5,No
2020/06/16,20:20,0.175,0.160,0.261,0.252,0.247,0.139,0.085,west-northwest,7.5,No
2020/06/16,20:30,0.177,0.161,0.263,0.249,0.249,0.140,0.085,west-northwest,8.6,No
2020/06/16,20:40,0.177,0.161,0.265,0.252,0.247,0.139,0.084,west-northwest,8.7,No
2020/06/16,20:50,0.175,0.160,0.263,0.251,0.248,0.139,0.085,west-northwest,6.7,No
2020/06/16,21:00,0.176,0.162,0.263,0.250,0.250,0.139,0.084,west-northwest,6.2,No
2020/06/16,21:10,0.176,0.161,0.264,0.251,0.247,0.139,0.085,west-northwest,4.7,No
2020/06/16,21:20,0.176,0.161,0.262,0.251,0.249,0.139,0.085,west-northwest,4.9,No
2020/06/16,21:30,0.176,0.161,0.263,0.249,0.249,0.138,0.085,west,4.3,No
2020/06/16,21:40,0.177,0.160,0.264,0.253,0.247,0.138,0.085,west,5.1,No
2020/06/16,21:50,0.176,0.162,0.261,0.251,0.248,0.139,0.085,west-northwest,4.8,No
2020/06/16,22:00,0.176,0.161,0.263,0.252,0.249,0.139,0.084,west,5.1,No
2020/06/16,22:10,0.177,0.161,0.262,0.252,0.246,0.139,0.084,west,6.8,No
2020/06/16,22:20,0.176,0.161,0.260,0.248,0.249,0.140,0.085,west,6.9,No
2020/06/16,22:30,0.177,0.160,0.263,0.251,0.248,0.138,0.084,west,6.4,No
2020/06/16,22:40,0.177,0.162,0.262,0.250,0.247,0.138,0.084,west,5.9,No
2020/06/16,22:50,0.175,0.161,0.262,0.250,0.250,0.139,0.084,west,5.4,No
2020/06/16,23:00,0.177,0.161,0.262,0.252,0.246,0.139,0.085,west-northwest,5.2,No
2020/06/16,23:10,0.176,0.161,0.262,0.250,0.249,0.138,0.084,west-northwest,5.2,No
2020/06/16,23:20,0.176,0.160,0.264,0.251,0.247,0.139,0.084,west-northwest,7.0,No
2020/06/16,23:30,0.176,0.161,0.260,0.252,0.248,0.139,0.084,west-northwest,8.1,No
2020/06/16,23:40,0.175,0.160,0.263,0.251,0.249,0.138,0.085,west-northwest,6.9,No
2020/06/16,23:50,0.178,0.161,0.263,0.252,0.247,0.139,0.085,northwest,6.8,No
